Hourly Data Report for September 29, 2014

All times are specified in Local Standard Time (LST). Add 1 hour to adjust for Daylight Saving Time where and when it is observed.

Metadata including Station Name, Province, Latitude, Longitude, Elevation, Climate ID, WMO ID, TC ID
CHATHAM KENT
ONTARIO
Latitude: 42°18'21.000" N Longitude: 82°04'57.000" W Elevation: 196.60 m
Climate ID: 6131414 WMO ID: TC ID: YCK
Hourly Data Report for September 29, 2014
Temp Definition
°C

Dew Point Temp Definition
°C

Rel Hum Definition
%

Wind Dir Definition
10's deg
Wind Spd Definition
km/h

Visibility Definition
km

Stn Press Definition
kPa

Hmdx Definition

Wind Chill Definition

Weather Definition

00:00 Legend Double Dagger 11.9 11.8 99   0 0.4 99.38 Fog
01:00 Legend Double Dagger 11.0 10.9 99 19 4 0.2 99.38 Fog
02:00 Legend Double Dagger 10.1 10.0 99 LegendMM 4 0.2 99.35 Fog
03:00 Legend Double Dagger 9.5 9.4 99 LegendMM 4 0.6 99.31 Fog
04:00 Legend Double Dagger 9.2 9.1 99 15 5 0.6 99.29 Fog
05:00 Legend Double Dagger 9.5 9.4 99 32 9 0.6 99.32 Fog
06:00 Legend Double Dagger 8.3 8.2 99   0 0.6 99.31 Fog
07:00 Legend Double Dagger 8.8 8.7 99 36 5 0.2 99.34 Fog
08:00 Legend Double Dagger 13.2 13.1 99   0 11.3 99.30 LegendNANA
09:00 Legend Double Dagger 17.4 17.1 98 24 5 16.1 99.29 LegendNANA
10:00 Legend Double Dagger 19.9 17.0 83 26 5 16.1 99.28 LegendNANA
11:00 Legend Double Dagger 23.0 14.7 59 LegendMM 4 16.1 99.24 27 LegendNANA
12:00 Legend Double Dagger 24.0 13.0 50 27 11 16.1 99.21 27 LegendNANA
13:00 Legend Double Dagger 24.0 12.6 49 30 13 16.1 99.14 27 LegendNANA
14:00 Legend Double Dagger 24.6 12.4 46 30 9 16.1 99.07 27 LegendNANA
15:00 Legend Double Dagger 23.4 14.6 57 20 18 16.1 98.99 27 LegendNANA
16:00 Legend Double Dagger 22.9 14.2 58 21 17 16.1 98.96 26 LegendNANA
17:00 Legend Double Dagger 21.3 14.0 63 21 18 16.1 98.97 25 LegendNANA
18:00 Legend Double Dagger 17.7 15.2 85 21 11 16.1 98.94 LegendNANA
19:00 Legend Double Dagger 15.7 14.4 92 20 11 16.1 98.91 LegendNANA
20:00 Legend Double Dagger 15.1 14.5 96 19 11 16.1 98.90 LegendNANA
21:00 Legend Double Dagger 14.9 14.4 97 20 9 4.8 98.91 Fog
22:00 Legend Double Dagger 14.1 13.8 98 20 9 1.2 98.88 Fog
23:00 Legend Double Dagger 14.6 14.3 98 19 11 8.1 98.83 Fog

Notes on Data Quality.

Legend
  • E = Estimated
  • M = Missing
  • NA = Not Available
  • ‡ = Partner data that is not subject to review by the National Climate Archives